Time,TemperatureF,DewpointF,PressureIn,WindDirection,WindDirectionDegrees,WindSpeedMPH,WindSpeedGustMPH,Humidity,HourlyPrecipIn,Conditions,Clouds,dailyrainin,SoftwareType,DateUTC
2013-01-04 00:00:00,26.6,18.6,30.21,WSW,258,9.2,10.9,71,0.00,,,0.00,VWS V14.01,2013-01-04 05:00:00,
2013-01-04 00:02:00,26.9,18.7,30.21,West,270,11.6,13.3,71,0.00,,,0.00,VWS V14.01,2013-01-04 05:02:00,
2013-01-04 00:05:00,26.9,18.6,30.25,West,259,12.4,12.8,70,0.00,,,0.00,VWS V14.01,2013-01-04 05:05:00,
2013-01-04 00:06:00,26.9,18.5,30.21,WSW,258,10.0,12.3,70,0.00,,,0.00,VWS V14.01,2013-01-04 05:06:00,
2013-01-04 00:07:00,26.8,18.5,30.21,WSW,249,11.1,11.1,71,0.00,,,0.00,VWS V14.01,2013-01-04 05:07:00,
2013-01-04 00:08:00,26.7,18.2,30.26,WSW,249,9.3,11.1,70,0.00,,,0.00,VWS V14.01,2013-01-04 05:08:00,
2013-01-04 00:10:00,26.9,18.5,30.20,WSW,251,10.7,11.7,70,0.00,,,0.00,VWS V14.01,2013-01-04 05:10:00,
2013-01-04 00:12:00,26.9,18.4,30.20,WSW,253,14.1,14.1,70,0.00,,,0.00,VWS V14.01,2013-01-04 05:12:00,
2013-01-04 00:13:00,26.9,18.3,30.20,West,266,12.1,14.1,70,0.00,,,0.00,VWS V14.01,2013-01-04 05:13:00,
2013-01-04 00:17:00,26.9,18.0,30.20,WSW,246,13.6,13.6,69,0.00,,,0.00,VWS V14.01,2013-01-04 05:17:00,
2013-01-04 00:19:00,26.5,18.1,30.20,West,259,8.5,10.5,70,0.00,,,0.00,VWS V14.01,2013-01-04 05:19:00,
2013-01-04 00:22:00,27.0,18.3,30.20,WSW,255,14.3,14.3,69,0.00,,,0.00,VWS V14.01,2013-01-04 05:22:00,
2013-01-04 00:23:00,26.9,18.2,30.20,West,261,11.2,14.3,69,0.00,,,0.00,VWS V14.01,2013-01-04 05:23:00,
2013-01-04 00:25:00,26.8,18.1,30.20,WSW,245,10.9,10.9,69,0.00,,,0.00,VWS V14.01,2013-01-04 05:25:00,
2013-01-04 00:26:00,26.9,18.2,30.20,West,261,13.1,13.1,69,0.00,,,0.00,VWS V14.01,2013-01-04 05:26:00,
2013-01-04 00:28:00,26.5,18.1,30.20,WSW,256,9.2,11.1,70,0.00,,,0.00,VWS V14.01,2013-01-04 05:28:00,
2013-01-04 00:30:00,26.8,18.0,30.21,West,264,12.6,13.8,69,0.00,,,0.00,VWS V14.01,2013-01-04 05:30:00,
2013-01-04 00:33:00,26.8,18.0,30.20,WSW,247,8.1,12.9,69,0.00,,,0.00,VWS V14.01,2013-01-04 05:33:00,
2013-01-04 00:34:00,26.7,17.9,30.20,West,268,13.6,13.6,69,0.00,,,0.00,VWS V14.01,2013-01-04 05:34:00,
2013-01-04 00:35:00,26.7,17.8,30.20,WSW,248,12.1,12.8,69,0.00,,,0.00,VWS V14.01,2013-01-04 05:35:00,
2013-01-04 00:38:00,26.7,17.9,30.20,WSW,255,11.6,11.6,69,0.00,,,0.00,VWS V14.01,2013-01-04 05:38:00,
2013-01-04 00:40:00,26.7,17.7,30.20,WSW,257,12.3,12.8,69,0.00,,,0.00,VWS V14.01,2013-01-04 05:40:00,
2013-01-04 00:41:00,26.8,17.7,30.20,West,263,10.9,12.3,68,0.00,,,0.00,VWS V14.01,2013-01-04 05:41:00,
2013-01-04 00:42:00,26.7,18.1,30.20,WSW,245,12.1,12.1,69,0.00,,,0.00,VWS V14.01,2013-01-04 05:42:00,
2013-01-04 00:45:00,26.7,17.7,30.20,WSW,242,12.8,13.6,68,0.00,,,0.00,VWS V14.01,2013-01-04 05:45:00,
2013-01-04 00:46:00,26.7,17.6,30.20,West,271,13.5,13.5,68,0.00,,,0.00,VWS V14.01,2013-01-04 05:46:00,
2013-01-04 00:47:00,26.5,17.6,30.20,WSW,256,9.2,12.3,69,0.00,,,0.00,VWS V14.01,2013-01-04 05:47:00,
2013-01-04 00:48:00,26.7,18.0,30.20,West,261,11.6,11.6,69,0.00,,,0.00,VWS V14.01,2013-01-04 05:48:00,
2013-01-04 00:51:00,26.5,17.8,30.20,West,263,9.2,12.1,69,0.00,,,0.00,VWS V14.01,2013-01-04 05:51:00,
2013-01-04 00:53:00,26.7,17.5,30.20,West,268,14.6,14.6,68,0.00,,,0.00,VWS V14.01,2013-01-04 05:53:00,
2013-01-04 00:56:00,26.7,17.9,30.19,WSW,253,12.6,12.6,69,0.00,,,0.00,VWS V14.01,2013-01-04 05:56:00,
2013-01-04 00:58:00,26.4,17.6,30.20,West,264,11.9,15.3,69,0.00,,,0.00,VWS V14.01,2013-01-04 05:58:00,
2013-01-04 00:59:00,26.4,17.6,30.20,West,264,11.9,15.3,69,0.00,,,0.00,VWS V14.01,2013-01-04 05:59:00,
2013-01-04 01:03:00,26.4,17.6,30.20,West,264,10.9,12.6,69,0.00,,,0.00,VWS V14.01,2013-01-04 06:03:00,
2013-01-04 01:04:00,26.5,17.7,30.19,West,260,12.9,12.9,69,0.00,,,0.00,VWS V14.01,2013-01-04 06:04:00,
2013-01-04 01:09:00,26.2,17.4,30.20,WSW,258,10.0,12.6,69,0.00,,,0.00,VWS V14.01,2013-01-04 06:09:00,
2013-01-04 01:10:00,26.5,17.7,30.20,West,269,11.6,11.6,69,0.00,,,0.00,VWS V14.01,2013-01-04 06:10:00,
2013-01-04 01:12:00,26.4,17.6,30.19,WSW,258,13.1,13.1,69,0.00,,,0.00,VWS V14.01,2013-01-04 06:12:00,
2013-01-04 01:15:00,26.3,17.5,30.19,WSW,256,15.2,15.2,69,0.00,,,0.00,VWS V14.01,2013-01-04 06:15:00,
2013-01-04 01:16:00,26.4,17.8,30.23,West,261,10.4,15.2,70,0.00,,,0.00,VWS V14.01,2013-01-04 06:16:00,
2013-01-04 01:17:00,26.4,17.9,30.20,West,274,10.5,11.9,70,0.00,,,0.00,VWS V14.01,2013-01-04 06:17:00,
2013-01-04 01:20:00,26.2,17.8,30.19,West,262,10.4,12.4,70,0.00,,,0.00,VWS V14.01,2013-01-04 06:20:00,
2013-01-04 01:22:00,26.5,17.4,30.19,West,268,14.8,15.8,68,0.00,,,0.00,VWS V14.01,2013-01-04 06:22:00,
2013-01-04 01:23:00,26.5,17.4,30.19,West,268,14.8,14.8,68,0.00,,,0.00,VWS V14.01,2013-01-04 06:23:00,
2013-01-04 01:24:00,26.5,17.4,30.19,WSW,243,13.5,13.8,68,0.00,,,0.00,VWS V14.01,2013-01-04 06:24:00,
2013-01-04 01:26:00,26.1,17.3,30.19,SW,233,10.2,15.0,69,0.00,,,0.00,VWS V14.01,2013-01-04 06:26:00,
2013-01-04 01:28:00,26.2,17.5,30.19,West,271,13.6,13.6,69,0.00,,,0.00,VWS V14.01,2013-01-04 06:28:00,
2013-01-04 01:29:00,26.4,17.7,30.19,West,264,14.0,14.0,69,0.00,,,0.00,VWS V14.01,2013-01-04 06:29:00,
2013-01-04 01:31:00,26.0,17.6,30.19,West,272,8.3,11.6,70,0.00,,,0.00,VWS V14.01,2013-01-04 06:31:00,
2013-01-04 01:32:00,26.1,17.8,30.19,West,270,11.4,11.4,70,0.00,,,0.00,VWS V14.01,2013-01-04 06:32:00,
2013-01-04 01:33:00,26.3,17.8,30.19,West,265,11.2,11.2,70,0.00,,,0.00,VWS V14.01,2013-01-04 06:33:00,
2013-01-04 01:35:00,26.4,17.8,30.19,WSW,252,15.0,15.0,70,0.00,,,0.00,VWS V14.01,2013-01-04 06:35:00,
2013-01-04 01:37:00,26.3,17.9,30.20,WSW,256,13.3,13.3,70,0.00,,,0.00,VWS V14.01,2013-01-04 06:37:00,
2013-01-04 01:40:00,26.3,17.6,30.19,West,264,11.9,13.5,69,0.00,,,0.00,VWS V14.01,2013-01-04 06:40:00,
2013-01-04 01:42:00,26.0,17.6,30.19,West,259,9.9,12.4,70,0.00,,,0.00,VWS V14.01,2013-01-04 06:42:00,
2013-01-04 01:45:00,26.1,18.0,30.20,West,260,9.5,11.2,71,0.00,,,0.00,VWS V14.01,2013-01-04 06:45:00,
2013-01-04 01:47:00,26.0,17.9,30.19,West,269,10.7,13.3,71,0.00,,,0.00,VWS V14.01,2013-01-04 06:47:00,
2013-01-04 01:49:00,26.0,18.0,30.20,WSW,247,10.7,10.7,71,0.00,,,0.00,VWS V14.01,2013-01-04 06:49:00,
2013-01-04 01:50:00,26.2,17.9,30.20,WSW,256,12.3,12.3,71,0.00,,,0.00,VWS V14.01,2013-01-04 06:50:00,
2013-01-04 01:52:00,26.1,18.0,30.19,West,266,11.6,11.6,71,0.00,,,0.00,VWS V14.01,2013-01-04 06:52:00,
2013-01-04 01:54:00,26.0,17.7,30.20,WSW,244,11.7,14.8,70,0.00,,,0.00,VWS V14.01,2013-01-04 06:54:00,
2013-01-04 01:55:00,25.8,17.7,30.20,West,261,11.7,11.7,71,0.00,,,0.00,VWS V14.01,2013-01-04 06:55:00,
2013-01-04 01:56:00,25.8,17.9,30.20,West,269,9.5,9.9,71,0.00,,,0.00,VWS V14.01,2013-01-04 06:56:00,
2013-01-04 01:59:00,25.9,18.2,30.20,West,271,11.7,11.7,72,0.00,,,0.00,VWS V14.01,2013-01-04 06:59:00,
2013-01-04 02:01:00,25.7,17.8,30.20,West,269,11.6,12.6,72,0.00,,,0.00,VWS V14.01,2013-01-04 07:01:00,
2013-01-04 02:02:00,25.9,18.0,30.20,West,266,12.1,12.1,72,0.00,,,0.00,VWS V14.01,2013-01-04 07:02:00,
2013-01-04 02:03:00,25.6,17.7,30.20,West,272,12.3,12.3,71,0.00,,,0.00,VWS V14.01,2013-01-04 07:03:00,
2013-01-04 02:05:00,25.8,17.8,30.20,WSW,255,12.3,12.8,72,0.00,,,0.00,VWS V14.01,2013-01-04 07:05:00,
2013-01-04 02:07:00,24.9,17.3,30.20,WSW,257,7.8,9.9,72,0.00,,,0.00,VWS V14.01,2013-01-04 07:07:00,
2013-01-04 02:08:00,24.9,17.4,30.20,West,263,9.2,9.2,73,0.00,,,0.00,VWS V14.01,2013-01-04 07:08:00,
2013-01-04 02:11:00,24.8,17.2,30.20,West,263,12.1,12.1,72,0.00,,,0.00,VWS V14.01,2013-01-04 07:11:00,
2013-01-04 02:13:00,25.4,17.8,30.21,West,262,13.1,13.1,72,0.00,,,0.00,VWS V14.01,2013-01-04 07:13:00,
2013-01-04 02:14:00,25.4,17.8,30.21,West,262,13.1,13.1,72,0.00,,,0.00,VWS V14.01,2013-01-04 07:14:00,
2013-01-04 02:18:00,25.3,18.0,30.20,WSW,249,12.9,12.9,73,0.00,,,0.00,VWS V14.01,2013-01-04 07:18:00,
2013-01-04 02:19:00,25.2,17.8,30.20,WSW,249,12.3,12.9,73,0.00,,,0.00,VWS V14.01,2013-01-04 07:19:00,
2013-01-04 02:20:00,25.1,17.7,30.20,West,265,11.6,11.6,73,0.00,,,0.00,VWS V14.01,2013-01-04 07:20:00,
2013-01-04 02:24:00,25.4,17.9,30.20,West,259,14.6,15.0,73,0.00,,,0.00,VWS V14.01,2013-01-04 07:24:00,
2013-01-04 02:25:00,25.1,17.6,30.21,WSW,258,11.2,11.9,73,0.00,,,0.00,VWS V14.01,2013-01-04 07:25:00,
2013-01-04 02:29:00,25.3,17.8,30.21,WSW,252,11.6,11.6,73,0.00,,,0.00,VWS V14.01,2013-01-04 07:29:00,
2013-01-04 02:30:00,24.9,17.6,30.21,WSW,241,8.0,11.6,73,0.00,,,0.00,VWS V14.01,2013-01-04 07:30:00,
2013-01-04 02:31:00,25.1,18.0,30.21,West,259,8.7,8.7,74,0.00,,,0.00,VWS V14.01,2013-01-04 07:31:00,
2013-01-04 02:32:00,25.4,18.1,30.20,West,271,11.9,11.9,74,0.00,,,0.00,VWS V14.01,2013-01-04 07:32:00,
2013-01-04 02:34:00,25.4,18.1,30.21,WSW,256,9.2,9.2,74,0.00,,,0.00,VWS V14.01,2013-01-04 07:34:00,
2013-01-04 02:36:00,25.2,17.6,30.20,WSW,251,8.7,11.4,73,0.00,,,0.00,VWS V14.01,2013-01-04 07:36:00,
2013-01-04 02:37:00,25.1,17.7,30.20,West,271,8.5,11.4,73,0.00,,,0.00,VWS V14.01,2013-01-04 07:37:00,
2013-01-04 02:39:00,25.4,17.9,30.21,West,259,13.1,13.1,73,0.00,,,0.00,VWS V14.01,2013-01-04 07:39:00,
2013-01-04 02:40:00,25.3,17.7,30.21,WSW,239,10.4,11.9,72,0.00,,,0.00,VWS V14.01,2013-01-04 07:40:00,
2013-01-04 02:41:00,25.3,17.8,30.21,West,260,10.4,10.4,73,0.00,,,0.00,VWS V14.01,2013-01-04 07:41:00,
2013-01-04 02:42:00,25.4,18.0,30.21,WSW,244,10.2,10.4,73,0.00,,,0.00,VWS V14.01,2013-01-04 07:42:00,
2013-01-04 02:44:00,25.4,17.9,30.21,West,266,12.9,14.0,73,0.00,,,0.00,VWS V14.01,2013-01-04 07:44:00,
2013-01-04 02:46:00,25.4,17.9,30.20,WSW,258,11.4,11.7,73,0.00,,,0.00,VWS V14.01,2013-01-04 07:46:00,
2013-01-04 02:48:00,25.3,18.0,30.21,West,269,10.2,12.1,73,0.00,,,0.00,VWS V14.01,2013-01-04 07:48:00,
2013-01-04 02:50:00,25.4,18.3,30.21,West,260,12.9,12.9,74,0.00,,,0.00,VWS V14.01,2013-01-04 07:50:00,
2013-01-04 02:51:00,25.5,18.1,30.20,WSW,256,11.9,11.9,73,0.00,,,0.00,VWS V14.01,2013-01-04 07:51:00,
2013-01-04 02:52:00,25.5,18.1,30.20,WSW,256,11.9,11.9,73,0.00,,,0.00,VWS V14.01,2013-01-04 07:52:00,
2013-01-04 02:53:00,25.4,18.3,30.21,WSW,242,11.2,11.2,74,0.00,,,0.00,VWS V14.01,2013-01-04 07:53:00,
2013-01-04 02:56:00,25.4,18.2,30.21,West,265,10.9,12.9,74,0.00,,,0.00,VWS V14.01,2013-01-04 07:56:00,
2013-01-04 02:58:00,25.2,18.3,30.20,WSW,251,10.9,10.9,74,0.00,,,0.00,VWS V14.01,2013-01-04 07:58:00,
2013-01-04 02:59:00,25.3,18.3,30.20,WSW,247,11.4,11.4,74,0.00,,,0.00,VWS V14.01,2013-01-04 07:59:00,
2013-01-04 03:01:00,24.9,17.8,30.20,WSW,255,9.0,10.4,74,0.00,,,0.00,VWS V14.01,2013-01-04 08:01:00,
2013-01-04 03:04:00,24.5,17.4,30.20,West,262,10.0,10.9,74,0.00,,,0.00,VWS V14.01,2013-01-04 08:04:00,
2013-01-04 03:05:00,24.2,17.2,30.20,WSW,248,8.3,10.0,74,0.00,,,0.00,VWS V14.01,2013-01-04 08:05:00,
2013-01-04 03:06:00,24.5,17.7,30.20,West,263,11.2,13.5,75,0.00,,,0.00,VWS V14.01,2013-01-04 08:06:00,
2013-01-04 03:07:00,24.1,17.2,30.20,West,265,11.4,13.5,74,0.00,,,0.00,VWS V14.01,2013-01-04 08:07:00,
2013-01-04 03:09:00,24.3,17.5,30.20,West,263,10.7,10.7,75,0.00,,,0.00,VWS V14.01,2013-01-04 08:09:00,
2013-01-04 03:11:00,24.2,17.6,30.20,WSW,242,11.1,11.1,75,0.00,,,0.00,VWS V14.01,2013-01-04 08:11:00,
2013-01-04 03:12:00,24.5,17.9,30.20,WSW,255,11.6,11.6,76,0.00,,,0.00,VWS V14.01,2013-01-04 08:12:00,
2013-01-04 03:13:00,24.2,17.6,30.20,WSW,245,11.7,12.3,76,0.00,,,0.00,VWS V14.01,2013-01-04 08:13:00,
2013-01-04 03:17:00,24.2,17.8,30.20,West,270,11.7,15.5,76,0.00,,,0.00,VWS V14.01,2013-01-04 08:17:00,
2013-01-04 03:19:00,23.8,17.5,30.20,West,268,11.7,13.5,76,0.00,,,0.00,VWS V14.01,2013-01-04 08:19:00,
2013-01-04 03:20:00,24.1,17.9,30.20,WSW,256,12.9,12.9,77,0.00,,,0.00,VWS V14.01,2013-01-04 08:20:00,
2013-01-04 03:22:00,24.1,18.0,30.20,West,272,13.8,13.8,77,0.00,,,0.00,VWS V14.01,2013-01-04 08:22:00,
2013-01-04 03:23:00,24.1,18.2,30.20,WSW,258,11.4,13.8,78,0.00,,,0.00,VWS V14.01,2013-01-04 08:23:00,
2013-01-04 03:25:00,23.7,17.6,30.20,West,261,10.7,14.0,77,0.00,,,0.00,VWS V14.01,2013-01-04 08:25:00,
2013-01-04 03:27:00,24.0,17.8,30.20,WSW,255,10.0,17.2,77,0.00,,,0.00,VWS V14.01,2013-01-04 08:27:00,
2013-01-04 03:28:00,24.1,18.0,30.20,West,272,11.7,17.2,77,0.00,,,0.00,VWS V14.01,2013-01-04 08:28:00,
2013-01-04 03:29:00,24.1,18.0,30.20,WSW,256,11.7,11.7,77,0.00,,,0.00,VWS V14.01,2013-01-04 08:29:00,
2013-01-04 03:31:00,24.4,18.4,30.21,WSW,254,15.0,15.0,77,0.00,,,0.00,VWS V14.01,2013-01-04 08:31:00,
2013-01-04 03:33:00,23.9,17.8,30.20,WSW,252,10.7,14.0,77,0.00,,,0.00,VWS V14.01,2013-01-04 08:33:00,
2013-01-04 03:34:00,24.8,18.9,30.20,WSW,255,18.2,18.2,78,0.00,,,0.00,VWS V14.01,2013-01-04 08:34:00,
2013-01-04 03:36:00,24.1,18.0,30.20,West,265,12.1,16.4,77,0.00,,,0.00,VWS V14.01,2013-01-04 08:36:00,
2013-01-04 03:37:00,24.2,18.1,30.20,WSW,255,11.7,14.5,77,0.00,,,0.00,VWS V14.01,2013-01-04 08:37:00,
2013-01-04 03:39:00,24.3,18.2,30.20,WSW,247,10.0,15.5,77,0.00,,,0.00,VWS V14.01,2013-01-04 08:39:00,
2013-01-04 03:41:00,24.4,18.3,30.20,WSW,250,13.6,16.7,77,0.00,,,0.00,VWS V14.01,2013-01-04 08:41:00,
2013-01-04 03:42:00,24.4,18.2,30.20,West,259,14.5,14.5,77,0.00,,,0.00,VWS V14.01,2013-01-04 08:42:00,
2013-01-04 03:43:00,24.4,18.3,30.20,West,271,20.5,20.5,77,0.00,,,0.00,VWS V14.01,2013-01-04 08:43:00,
2013-01-04 03:46:00,24.1,18.0,30.20,WNW,291,17.0,21.5,77,0.00,,,0.00,VWS V14.01,2013-01-04 08:46:00,
2013-01-04 03:47:00,23.9,17.8,30.20,West,279,14.8,17.0,77,0.00,,,0.00,VWS V14.01,2013-01-04 08:47:00,
2013-01-04 03:49:00,23.8,17.9,30.19,West,279,17.7,22.2,78,0.00,,,0.00,VWS V14.01,2013-01-04 08:49:00,
2013-01-04 03:52:00,23.7,18.2,30.20,West,280,15.8,18.9,79,0.00,,,0.00,VWS V14.01,2013-01-04 08:52:00,
2013-01-04 03:53:00,23.6,18.4,30.20,WNW,283,12.8,15.8,80,0.00,,,0.00,VWS V14.01,2013-01-04 08:53:00,
2013-01-04 03:54:00,23.6,18.5,30.20,WNW,284,14.6,14.6,81,0.00,,,0.00,VWS V14.01,2013-01-04 08:54:00,
2013-01-04 03:58:00,23.7,18.5,30.20,West,274,16.0,16.0,80,0.00,,,0.00,VWS V14.01,2013-01-04 08:58:00,
2013-01-04 03:59:00,23.8,15.3,30.20,WSW,256,18.2,18.2,69,0.00,,,0.00,VWS V14.01,2013-01-04 08:59:00,
2013-01-04 04:00:00,23.7,18.3,30.20,West,264,15.3,18.2,79,0.00,,,0.00,VWS V14.01,2013-01-04 09:00:00,
2013-01-04 04:04:00,23.6,18.2,30.20,WSW,258,12.8,15.0,80,0.00,,,0.00,VWS V14.01,2013-01-04 09:04:00,
2013-01-04 04:05:00,23.7,18.4,30.21,WSW,257,15.3,15.3,80,0.00,,,0.00,VWS V14.01,2013-01-04 09:05:00,
2013-01-04 04:10:00,23.3,18.0,30.19,West,263,11.2,13.6,80,0.00,,,0.00,VWS V14.01,2013-01-04 09:10:00,
2013-01-04 04:11:00,23.1,17.8,30.20,WSW,251,14.1,14.6,80,0.00,,,0.00,VWS V14.01,2013-01-04 09:11:00,
2013-01-04 04:12:00,23.5,18.2,30.21,West,264,14.6,14.6,80,0.00,,,0.00,VWS V14.01,2013-01-04 09:12:00,
2013-01-04 04:16:00,23.3,18.0,30.19,WSW,255,17.2,17.2,80,0.00,,,0.00,VWS V14.01,2013-01-04 09:16:00,
2013-01-04 04:18:00,23.2,17.8,30.20,West,259,14.1,14.1,80,0.00,,,0.00,VWS V14.01,2013-01-04 09:18:00,
2013-01-04 04:19:00,23.4,18.1,30.19,WSW,249,16.5,16.5,80,0.00,,,0.00,VWS V14.01,2013-01-04 09:19:00,
2013-01-04 04:21:00,22.7,17.5,30.21,WSW,254,10.4,11.2,80,0.00,,,0.00,VWS V14.01,2013-01-04 09:21:00,
2013-01-04 04:22:00,22.8,17.8,30.20,WSW,252,10.0,13.5,81,0.00,,,0.00,VWS V14.01,2013-01-04 09:22:00,
2013-01-04 04:25:00,23.1,18.1,30.20,WSW,254,13.8,17.2,81,0.00,,,0.00,VWS V14.01,2013-01-04 09:25:00,
2013-01-04 04:27:00,22.9,18.0,30.20,West,259,12.3,12.3,81,0.00,,,0.00,VWS V14.01,2013-01-04 09:27:00,
2013-01-04 04:30:00,22.5,17.7,30.20,SW,232,9.9,12.8,81,0.00,,,0.00,VWS V14.01,2013-01-04 09:30:00,
2013-01-04 04:32:00,22.7,17.8,30.19,WSW,251,13.3,14.1,81,0.00,,,0.00,VWS V14.01,2013-01-04 09:32:00,
2013-01-04 04:33:00,22.1,17.2,30.19,WSW,252,9.7,10.0,81,0.00,,,0.00,VWS V14.01,2013-01-04 09:33:00,
2013-01-04 04:36:00,22.3,17.6,30.20,WSW,257,15.5,15.5,82,0.00,,,0.00,VWS V14.01,2013-01-04 09:36:00,
2013-01-04 04:37:00,21.7,16.9,30.20,WSW,248,12.3,13.1,81,0.00,,,0.00,VWS V14.01,2013-01-04 09:37:00,
2013-01-04 04:38:00,21.7,15.1,30.20,West,260,11.2,11.7,75,0.00,,,0.00,VWS V14.01,2013-01-04 09:38:00,
2013-01-04 04:39:00,21.7,17.0,30.20,WSW,251,11.4,11.7,82,0.00,,,0.00,VWS V14.01,2013-01-04 09:39:00,
2013-01-04 04:41:00,21.4,16.8,30.20,WSW,251,12.4,12.4,82,0.00,,,0.00,VWS V14.01,2013-01-04 09:41:00,
2013-01-04 04:42:00,21.3,16.9,30.20,West,259,12.8,12.8,83,0.00,,,0.00,VWS V14.01,2013-01-04 09:42:00,
2013-01-04 04:44:00,21.3,16.9,30.20,West,265,12.8,12.9,83,0.00,,,0.00,VWS V14.01,2013-01-04 09:44:00,
2013-01-04 04:46:00,21.1,16.9,30.20,West,272,10.7,10.7,83,0.00,,,0.00,VWS V14.01,2013-01-04 09:46:00,
2013-01-04 04:47:00,20.8,16.6,30.20,West,269,12.9,12.9,84,0.00,,,0.00,VWS V14.01,2013-01-04 09:47:00,
2013-01-04 04:48:00,20.6,16.5,30.20,WSW,246,11.6,12.9,84,0.00,,,0.00,VWS V14.01,2013-01-04 09:48:00,
2013-01-04 04:49:00,21.1,17.1,30.20,WSW,244,13.8,13.8,84,0.00,,,0.00,VWS V14.01,2013-01-04 09:49:00,
2013-01-04 04:51:00,20.6,16.7,30.20,West,259,11.9,11.9,85,0.00,,,0.00,VWS V14.01,2013-01-04 09:51:00,
2013-01-04 04:53:00,20.5,16.7,30.20,West,271,11.1,11.7,85,0.00,,,0.00,VWS V14.01,2013-01-04 09:53:00,
2013-01-04 04:54:00,20.7,17.1,30.20,West,259,13.6,13.6,86,0.00,,,0.00,VWS V14.01,2013-01-04 09:54:00,
2013-01-04 04:55:00,20.4,16.8,30.19,West,266,10.5,14.3,86,0.00,,,0.00,VWS V14.01,2013-01-04 09:55:00,
2013-01-04 04:58:00,20.5,17.0,30.20,West,275,14.3,14.3,86,0.00,,,0.00,VWS V14.01,2013-01-04 09:58:00,
2013-01-04 04:59:00,20.6,17.2,30.19,West,265,14.0,14.0,86,0.00,,,0.00,VWS V14.01,2013-01-04 09:59:00,
2013-01-04 05:00:00,20.2,16.9,30.20,West,261,11.6,14.0,87,0.00,,,0.00,VWS V14.01,2013-01-04 10:00:00,
2013-01-04 05:03:00,20.2,16.8,30.20,West,266,10.2,11.9,87,0.00,,,0.00,VWS V14.01,2013-01-04 10:03:00,
2013-01-04 05:04:00,19.8,16.5,30.20,WSW,247,12.4,12.4,87,0.00,,,0.00,VWS V14.01,2013-01-04 10:04:00,
2013-01-04 05:05:00,19.5,16.2,30.20,West,263,11.4,11.4,87,0.00,,,0.00,VWS V14.01,2013-01-04 10:05:00,
2013-01-04 05:06:00,19.5,16.2,30.20,West,263,11.4,11.4,87,0.00,,,0.00,VWS V14.01,2013-01-04 10:06:00,
2013-01-04 05:09:00,19.9,16.6,30.20,West,259,10.0,14.0,87,0.00,,,0.00,VWS V14.01,2013-01-04 10:09:00,
2013-01-04 05:10:00,19.7,16.5,30.20,WSW,249,10.5,13.6,87,0.00,,,0.00,VWS V14.01,2013-01-04 10:10:00,
2013-01-04 05:11:00,19.8,16.6,30.20,West,265,10.2,10.5,87,0.00,,,0.00,VWS V14.01,2013-01-04 10:11:00,
2013-01-04 05:12:00,20.2,17.1,30.20,WSW,257,13.6,13.6,87,0.00,,,0.00,VWS V14.01,2013-01-04 10:12:00,
2013-01-04 05:15:00,20.1,17.1,30.21,WSW,258,11.7,11.7,88,0.00,,,0.00,VWS V14.01,2013-01-04 10:15:00,
2013-01-04 05:16:00,19.5,16.5,30.20,WSW,239,12.8,12.8,88,0.00,,,0.00,VWS V14.01,2013-01-04 10:16:00,
2013-01-04 05:17:00,19.3,16.1,30.21,WSW,240,9.2,9.7,87,0.00,,,0.00,VWS V14.01,2013-01-04 10:17:00,
2013-01-04 05:20:00,19.4,16.4,30.20,WSW,258,11.6,11.6,88,0.00,,,0.00,VWS V14.01,2013-01-04 10:20:00,
2013-01-04 05:21:00,19.4,16.5,30.21,WSW,252,12.3,12.3,88,0.00,,,0.00,VWS V14.01,2013-01-04 10:21:00,
2013-01-04 05:22:00,18.8,15.8,30.26,WSW,251,8.7,13.5,88,0.00,,,0.00,VWS V14.01,2013-01-04 10:22:00,
2013-01-04 05:23:00,19.1,16.1,30.27,WSW,252,10.0,10.0,88,0.00,,,0.00,VWS V14.01,2013-01-04 10:23:00,
2013-01-04 05:26:00,19.4,16.4,30.21,WSW,254,13.8,13.8,88,0.00,,,0.00,VWS V14.01,2013-01-04 10:26:00,
2013-01-04 05:28:00,19.3,16.2,30.21,WSW,243,12.1,13.6,88,0.00,,,0.00,VWS V14.01,2013-01-04 10:28:00,
2013-01-04 05:30:00,18.8,15.7,30.21,WSW,257,9.3,9.9,88,0.00,,,0.00,VWS V14.01,2013-01-04 10:30:00,
2013-01-04 05:33:00,18.4,15.4,30.23,West,260,8.1,9.9,88,0.00,,,0.00,VWS V14.01,2013-01-04 10:33:00,
2013-01-04 05:34:00,19.2,16.3,30.21,WSW,253,11.4,12.1,88,0.00,,,0.00,VWS V14.01,2013-01-04 10:34:00,
2013-01-04 05:35:00,18.9,16.1,30.21,West,260,11.4,11.4,88,0.00,,,0.00,VWS V14.01,2013-01-04 10:35:00,
2013-01-04 05:39:00,18.6,15.7,30.22,West,265,11.1,11.1,88,0.00,,,0.00,VWS V14.01,2013-01-04 10:39:00,
2013-01-04 05:40:00,18.9,16.0,30.21,West,260,9.7,11.2,88,0.00,,,0.00,VWS V14.01,2013-01-04 10:40:00,
2013-01-04 05:41:00,18.3,15.4,30.21,West,263,10.0,10.0,88,0.00,,,0.00,VWS V14.01,2013-01-04 10:41:00,
2013-01-04 05:42:00,18.8,16.0,30.21,WSW,257,12.8,12.8,88,0.00,,,0.00,VWS V14.01,2013-01-04 10:42:00,
2013-01-04 05:46:00,18.5,15.7,30.22,West,262,9.9,9.9,88,0.00,,,0.00,VWS V14.01,2013-01-04 10:46:00,
2013-01-04 05:47:00,18.5,15.7,30.22,West,262,9.9,9.9,88,0.00,,,0.00,VWS V14.01,2013-01-04 10:47:00,
2013-01-04 05:48:00,18.6,15.9,30.22,WSW,242,12.6,12.6,89,0.00,,,0.00,VWS V14.01,2013-01-04 10:48:00,
2013-01-04 05:52:00,18.1,15.4,30.22,West,272,9.2,12.1,89,0.00,,,0.00,VWS V14.01,2013-01-04 10:52:00,
2013-01-04 05:53:00,18.4,15.6,30.22,West,266,10.7,10.9,89,0.00,,,0.00,VWS V14.01,2013-01-04 10:53:00,
2013-01-04 05:54:00,18.7,16.0,30.22,West,259,11.6,11.6,89,0.00,,,0.00,VWS V14.01,2013-01-04 10:54:00,
2013-01-04 05:58:00,18.6,15.8,30.22,WSW,249,12.6,12.6,88,0.00,,,0.00,VWS V14.01,2013-01-04 10:58:00,
2013-01-04 05:59:00,18.6,15.8,30.22,WSW,249,12.6,12.6,88,0.00,,,0.00,VWS V14.01,2013-01-04 10:59:00,
2013-01-04 06:04:00,18.2,15.4,30.21,West,260,10.5,11.4,88,0.00,,,0.00,VWS V14.01,2013-01-04 11:04:00,
2013-01-04 06:05:00,17.9,15.1,30.22,WSW,251,10.9,10.9,88,0.00,,,0.00,VWS V14.01,2013-01-04 11:05:00,
2013-01-04 06:09:00,18.3,15.4,30.22,West,264,10.9,10.9,88,0.00,,,0.00,VWS V14.01,2013-01-04 11:09:00,
2013-01-04 06:10:00,17.7,14.8,30.22,West,275,10.2,10.9,88,0.00,,,0.00,VWS V14.01,2013-01-04 11:10:00,
2013-01-04 06:13:00,18.0,15.2,30.21,WSW,253,11.1,12.8,88,0.00,,,0.00,VWS V14.01,2013-01-04 11:13:00,
2013-01-04 06:15:00,17.9,15.1,30.21,West,267,12.4,12.4,88,0.00,,,0.00,VWS V14.01,2013-01-04 11:15:00,
2013-01-04 06:18:00,18.2,15.3,30.22,West,268,12.6,12.6,88,0.00,,,0.00,VWS V14.01,2013-01-04 11:18:00,
2013-01-04 06:20:00,17.7,14.6,30.22,WSW,244,11.1,12.1,88,0.00,,,0.00,VWS V14.01,2013-01-04 11:20:00,
2013-01-04 06:23:00,17.8,14.8,30.22,West,264,12.6,12.6,88,0.00,,,0.00,VWS V14.01,2013-01-04 11:23:00,
2013-01-04 06:24:00,17.9,14.9,30.22,West,268,11.1,12.3,88,0.00,,,0.00,VWS V14.01,2013-01-04 11:24:00,
2013-01-04 06:26:00,18.0,15.0,30.22,WSW,257,10.2,10.2,88,0.00,,,0.00,VWS V14.01,2013-01-04 11:26:00,
2013-01-04 06:27:00,17.3,14.3,30.22,WSW,243,8.3,10.2,88,0.00,,,0.00,VWS V14.01,2013-01-04 11:27:00,
2013-01-04 06:28:00,17.5,14.4,30.22,West,261,8.5,8.5,88,0.00,,,0.00,VWS V14.01,2013-01-04 11:28:00,
2013-01-04 06:31:00,17.6,14.7,30.22,West,268,9.7,10.0,88,0.00,,,0.00,VWS V14.01,2013-01-04 11:31:00,
2013-01-04 06:34:00,17.6,14.7,30.22,WSW,249,10.4,10.7,88,0.00,,,0.00,VWS V14.01,2013-01-04 11:34:00,
2013-01-04 06:36:00,17.2,14.4,30.21,West,275,11.6,11.6,88,0.00,,,0.00,VWS V14.01,2013-01-04 11:36:00,
2013-01-04 06:37:00,18.1,15.3,30.22,West,262,11.4,11.4,88,0.00,,,0.00,VWS V14.01,2013-01-04 11:37:00,
2013-01-04 06:38:00,18.0,15.1,30.22,WSW,247,9.9,11.4,88,0.00,,,0.00,VWS V14.01,2013-01-04 11:38:00,
2013-01-04 06:39:00,17.9,15.0,30.22,SW,235,9.5,9.9,88,0.00,,,0.00,VWS V14.01,2013-01-04 11:39:00,
2013-01-04 06:41:00,17.4,14.4,30.27,West,259,8.5,11.6,88,0.00,,,0.00,VWS V14.01,2013-01-04 11:41:00,
2013-01-04 06:43:00,16.9,14.0,30.22,WSW,245,9.2,9.5,88,0.00,,,0.00,VWS V14.01,2013-01-04 11:43:00,
2013-01-04 06:45:00,16.9,13.9,30.21,SW,231,7.1,9.5,88,0.00,,,0.00,VWS V14.01,2013-01-04 11:45:00,
2013-01-04 06:47:00,16.5,13.8,30.22,SW,234,6.9,8.8,89,0.00,,,0.00,VWS V14.01,2013-01-04 11:47:00,
2013-01-04 06:49:00,16.7,14.1,30.21,WSW,245,6.9,8.8,89,0.00,,,0.00,VWS V14.01,2013-01-04 11:49:00,
2013-01-04 06:51:00,16.5,14.1,30.21,SW,235,8.7,8.8,90,0.00,,,0.00,VWS V14.01,2013-01-04 11:51:00,
2013-01-04 06:52:00,16.2,13.8,30.21,SW,234,6.9,8.7,90,0.00,,,0.00,VWS V14.01,2013-01-04 11:52:00,
2013-01-04 06:53:00,16.2,13.9,30.21,SW,230,7.5,7.5,90,0.00,,,0.00,VWS V14.01,2013-01-04 11:53:00,
2013-01-04 06:55:00,16.5,14.3,30.21,SW,236,9.0,9.0,91,0.00,,,0.00,VWS V14.01,2013-01-04 11:55:00,
2013-01-04 06:57:00,16.2,14.2,30.21,SW,233,7.6,9.7,91,0.00,,,0.00,VWS V14.01,2013-01-04 11:57:00,
2013-01-04 06:58:00,16.4,14.4,30.21,SW,229,9.2,9.2,92,0.00,,,0.00,VWS V14.01,2013-01-04 11:58:00,
2013-01-04 07:00:00,16.2,14.2,30.21,SW,235,8.3,8.3,92,0.00,,,0.00,VWS V14.01,2013-01-04 12:00:00,
2013-01-04 07:02:00,16.1,14.2,30.21,WSW,245,8.0,9.0,92,0.00,,,0.00,VWS V14.01,2013-01-04 12:02:00,
2013-01-04 07:03:00,16.3,14.4,30.21,WSW,245,6.9,8.0,92,0.00,,,0.00,VWS V14.01,2013-01-04 12:03:00,
2013-01-04 07:04:00,16.5,14.6,30.21,WSW,250,8.3,8.5,92,0.00,,,0.00,VWS V14.01,2013-01-04 12:04:00,
2013-01-04 07:05:00,16.1,14.4,30.21,WSW,245,10.9,10.9,93,0.00,,,0.00,VWS V14.01,2013-01-04 12:05:00,
2013-01-04 07:07:00,16.5,14.8,30.21,WSW,240,10.7,10.7,93,0.00,,,0.00,VWS V14.01,2013-01-04 12:07:00,
2013-01-04 07:09:00,16.3,14.6,30.21,SW,234,11.1,11.4,93,0.00,,,0.00,VWS V14.01,2013-01-04 12:09:00,
2013-01-04 07:10:00,16.2,14.4,30.22,WSW,244,9.2,11.1,92,0.00,,,0.00,VWS V14.01,2013-01-04 12:10:00,
2013-01-04 07:12:00,16.6,14.8,30.21,WSW,246,8.3,9.2,92,0.00,,,0.00,VWS V14.01,2013-01-04 12:12:00,
2013-01-04 07:14:00,16.6,14.8,30.21,WSW,240,11.2,11.2,93,0.00,,,0.00,VWS V14.01,2013-01-04 12:14:00,
2013-01-04 07:16:00,16.5,14.6,30.21,WSW,245,10.7,10.7,92,0.00,,,0.00,VWS V14.01,2013-01-04 12:16:00,
2013-01-04 07:18:00,16.0,14.2,30.21,WSW,242,10.0,10.0,92,0.00,,,0.00,VWS V14.01,2013-01-04 12:18:00,
2013-01-04 07:19:00,16.5,14.6,30.21,WSW,244,10.2,10.2,92,0.00,,,0.00,VWS V14.01,2013-01-04 12:19:00,
2013-01-04 07:20:00,16.1,14.3,30.21,WSW,250,8.1,11.1,92,0.00,,,0.00,VWS V14.01,2013-01-04 12:20:00,
2013-01-04 07:21:00,15.9,14.0,30.21,WSW,239,9.7,9.7,92,0.00,,,0.00,VWS V14.01,2013-01-04 12:21:00,
2013-01-04 07:24:00,16.0,14.3,30.21,WSW,239,10.7,10.7,93,0.00,,,0.00,VWS V14.01,2013-01-04 12:24:00,
2013-01-04 07:26:00,16.0,14.3,30.21,SW,232,10.5,12.9,93,0.00,,,0.00,VWS V14.01,2013-01-04 12:26:00,
2013-01-04 07:27:00,15.8,14.1,30.21,SW,235,9.7,10.5,93,0.00,,,0.00,VWS V14.01,2013-01-04 12:27:00,
2013-01-04 07:28:00,15.6,13.9,30.21,WSW,249,9.7,12.6,93,0.00,,,0.00,VWS V14.01,2013-01-04 12:28:00,
2013-01-04 07:30:00,15.8,14.2,30.21,SW,226,9.3,9.3,93,0.00,,,0.00,VWS V14.01,2013-01-04 12:30:00,
2013-01-04 07:32:00,15.4,13.7,30.21,SW,235,8.3,10.4,93,0.00,,,0.00,VWS V14.01,2013-01-04 12:32:00,
2013-01-04 07:34:00,15.7,14.1,30.21,WSW,241,11.1,11.1,93,0.00,,,0.00,VWS V14.01,2013-01-04 12:34:00,
2013-01-04 07:35:00,15.8,14.3,30.21,WSW,250,12.6,12.6,94,0.00,,,0.00,VWS V14.01,2013-01-04 12:35:00,
2013-01-04 07:37:00,15.4,13.9,30.21,WSW,239,9.0,10.2,94,0.00,,,0.00,VWS V14.01,2013-01-04 12:37:00,
2013-01-04 07:39:00,15.8,14.3,30.21,WSW,250,11.6,11.6,94,0.00,,,0.00,VWS V14.01,2013-01-04 12:39:00,
2013-01-04 07:40:00,15.8,14.3,30.21,WSW,256,12.4,12.4,94,0.00,,,0.00,VWS V14.01,2013-01-04 12:40:00,
2013-01-04 07:42:00,15.4,13.9,30.21,WSW,237,9.9,10.4,94,0.00,,,0.00,VWS V14.01,2013-01-04 12:42:00,
2013-01-04 07:43:00,15.3,13.8,30.21,WSW,242,8.5,10.4,94,0.00,,,0.00,VWS V14.01,2013-01-04 12:43:00,
2013-01-04 07:45:00,16.0,14.5,30.22,SW,236,11.4,11.4,94,0.00,,,0.00,VWS V14.01,2013-01-04 12:45:00,
2013-01-04 07:47:00,15.7,14.1,30.22,WSW,247,9.5,11.6,93,0.00,,,0.00,VWS V14.01,2013-01-04 12:47:00,
2013-01-04 07:49:00,15.7,14.1,30.22,WSW,243,9.9,10.2,93,0.00,,,0.00,VWS V14.01,2013-01-04 12:49:00,
2013-01-04 07:50:00,15.6,14.0,30.22,WSW,254,10.2,10.2,93,0.00,,,0.00,VWS V14.01,2013-01-04 12:50:00,
2013-01-04 07:53:00,15.8,14.1,30.21,WSW,252,9.9,13.3,93,0.00,,,0.00,VWS V14.01,2013-01-04 12:53:00,
2013-01-04 07:55:00,15.5,13.8,30.22,WSW,239,10.7,10.7,93,0.00,,,0.00,VWS V14.01,2013-01-04 12:55:00,
2013-01-04 07:56:00,15.7,14.1,30.22,WSW,247,10.7,10.7,93,0.00,,,0.00,VWS V14.01,2013-01-04 12:56:00,
2013-01-04 07:57:00,16.0,14.4,30.22,WSW,248,11.1,11.1,93,0.00,,,0.00,VWS V14.01,2013-01-04 12:57:00,
2013-01-04 07:58:00,15.8,14.2,30.22,WSW,244,12.9,12.9,93,0.00,,,0.00,VWS V14.01,2013-01-04 12:58:00,
2013-01-04 08:01:00,15.9,14.1,30.21,WSW,258,9.5,9.9,93,0.00,,,0.00,VWS V14.01,2013-01-04 13:01:00,
2013-01-04 08:02:00,15.7,13.9,30.22,WSW,249,10.4,11.9,93,0.00,,,0.00,VWS V14.01,2013-01-04 13:02:00,
2013-01-04 08:03:00,16.0,14.2,30.22,WSW,240,11.6,11.6,92,0.00,,,0.00,VWS V14.01,2013-01-04 13:03:00,
2013-01-04 08:05:00,15.7,13.8,30.22,WSW,244,9.9,9.9,92,0.00,,,0.00,VWS V14.01,2013-01-04 13:05:00,
2013-01-04 08:06:00,16.1,14.1,30.22,WSW,238,10.0,11.2,92,0.00,,,0.00,VWS V14.01,2013-01-04 13:06:00,
2013-01-04 08:07:00,16.1,14.2,30.22,SW,235,11.7,11.7,92,0.00,,,0.00,VWS V14.01,2013-01-04 13:07:00,
2013-01-04 08:08:00,16.1,14.1,30.22,WSW,247,11.1,11.7,92,0.00,,,0.00,VWS V14.01,2013-01-04 13:08:00,
2013-01-04 08:10:00,15.9,13.9,30.22,WSW,251,10.9,10.9,91,0.00,,,0.00,VWS V14.01,2013-01-04 13:10:00,
2013-01-04 08:11:00,16.1,14.0,30.21,SW,229,11.6,11.7,91,0.00,,,0.00,VWS V14.01,2013-01-04 13:11:00,
2013-01-04 08:13:00,16.1,13.9,30.22,WSW,239,12.9,12.9,91,0.00,,,0.00,VWS V14.01,2013-01-04 13:13:00,
2013-01-04 08:15:00,16.0,13.6,30.22,West,259,9.3,11.6,90,0.00,,,0.00,VWS V14.01,2013-01-04 13:15:00,
2013-01-04 08:16:00,15.9,13.4,30.22,WSW,248,9.7,9.7,90,0.00,,,0.00,VWS V14.01,2013-01-04 13:16:00,
2013-01-04 08:19:00,15.6,12.9,30.22,WSW,246,8.3,12.4,89,0.00,,,0.00,VWS V14.01,2013-01-04 13:19:00,
2013-01-04 08:21:00,16.0,13.2,30.22,West,260,12.3,12.4,88,0.00,,,0.00,VWS V14.01,2013-01-04 13:21:00,
2013-01-04 08:23:00,16.7,13.7,30.24,West,261,14.3,14.3,88,0.00,,,0.00,VWS V14.01,2013-01-04 13:23:00,
2013-01-04 08:24:00,16.8,13.6,30.23,WSW,246,13.6,14.3,87,0.00,,,0.00,VWS V14.01,2013-01-04 13:24:00,
2013-01-04 08:26:00,16.6,13.0,30.22,WSW,258,11.9,12.4,86,0.00,,,0.00,VWS V14.01,2013-01-04 13:26:00,
2013-01-04 08:28:00,16.6,12.9,30.22,WSW,251,13.3,13.3,85,0.00,,,0.00,VWS V14.01,2013-01-04 13:28:00,
2013-01-04 08:29:00,16.5,12.7,30.22,West,263,11.4,13.3,85,0.00,,,0.00,VWS V14.01,2013-01-04 13:29:00,
2013-01-04 08:30:00,16.4,12.4,30.23,WSW,255,11.2,11.9,84,0.00,,,0.00,VWS V14.01,2013-01-04 13:30:00,
2013-01-04 08:31:00,16.6,12.6,30.23,WSW,246,11.7,12.8,84,0.00,,,0.00,VWS V14.01,2013-01-04 13:31:00,
2013-01-04 08:34:00,16.9,12.5,30.23,WSW,253,12.4,12.8,83,0.00,,,0.00,VWS V14.01,2013-01-04 13:34:00,
2013-01-04 08:35:00,16.8,12.3,30.22,WSW,250,9.9,11.6,82,0.00,,,0.00,VWS V14.01,2013-01-04 13:35:00,
2013-01-04 08:36:00,16.8,12.2,30.22,WSW,255,11.1,11.6,82,0.00,,,0.00,VWS V14.01,2013-01-04 13:36:00,
2013-01-04 08:38:00,16.9,12.2,30.22,WSW,251,11.9,11.9,81,0.00,,,0.00,VWS V14.01,2013-01-04 13:38:00,
2013-01-04 08:39:00,16.7,11.9,30.22,WSW,239,9.3,11.9,81,0.00,,,0.00,VWS V14.01,2013-01-04 13:39:00,
2013-01-04 08:41:00,17.3,12.3,30.22,WSW,250,13.8,13.8,80,0.00,,,0.00,VWS V14.01,2013-01-04 13:41:00,
2013-01-04 08:42:00,17.1,12.0,30.22,WSW,257,11.4,13.8,80,0.00,,,0.00,VWS V14.01,2013-01-04 13:42:00,
2013-01-04 08:43:00,16.7,11.4,30.22,WSW,254,9.3,11.2,79,0.00,,,0.00,VWS V14.01,2013-01-04 13:43:00,
2013-01-04 08:45:00,17.0,11.7,30.28,WSW,252,9.5,14.8,79,0.00,,,0.00,VWS V14.01,2013-01-04 13:45:00,
2013-01-04 08:47:00,16.9,11.4,30.22,WSW,254,10.9,10.9,79,0.00,,,0.00,VWS V14.01,2013-01-04 13:47:00,
2013-01-04 08:48:00,17.2,11.7,30.22,WSW,250,9.3,10.9,79,0.00,,,0.00,VWS V14.01,2013-01-04 13:48:00,
2013-01-04 08:52:00,17.2,11.4,30.22,WSW,246,12.9,12.9,78,0.00,,,0.00,VWS V14.01,2013-01-04 13:52:00,
2013-01-04 08:53:00,17.2,11.3,30.22,WSW,256,10.2,10.4,77,0.00,,,0.00,VWS V14.01,2013-01-04 13:53:00,
2013-01-04 08:54:00,17.2,11.3,30.22,WSW,256,10.2,10.4,77,0.00,,,0.00,VWS V14.01,2013-01-04 13:54:00,
2013-01-04 08:57:00,17.3,11.1,30.22,West,261,10.0,12.9,76,0.00,,,0.00,VWS V14.01,2013-01-04 13:57:00,
2013-01-04 08:58:00,17.4,10.9,30.22,WSW,249,11.4,12.3,76,0.00,,,0.00,VWS V14.01,2013-01-04 13:58:00,
2013-01-04 08:59:00,17.2,10.8,30.21,WSW,258,9.7,12.3,75,0.00,,,0.00,VWS V14.01,2013-01-04 13:59:00,
2013-01-04 09:04:00,17.5,10.7,30.22,West,262,13.3,14.5,74,0.00,,,0.00,VWS V14.01,2013-01-04 14:04:00,
2013-01-04 09:05:00,17.6,10.6,30.22,West,268,18.6,18.6,73,0.00,,,0.00,VWS V14.01,2013-01-04 14:05:00,
2013-01-04 09:06:00,17.5,10.5,30.22,West,260,12.1,14.5,73,0.00,,,0.00,VWS V14.01,2013-01-04 14:06:00,
2013-01-04 09:10:00,17.7,10.2,30.22,WSW,256,10.7,12.8,72,0.00,,,0.00,VWS V14.01,2013-01-04 14:10:00,
2013-01-04 09:11:00,17.7,10.1,30.22,WSW,256,14.5,14.5,72,0.00,,,0.00,VWS V14.01,2013-01-04 14:11:00,
2013-01-04 09:13:00,17.7,10.0,30.22,West,262,12.9,12.9,71,0.00,,,0.00,VWS V14.01,2013-01-04 14:13:00,
2013-01-04 09:16:00,17.8,9.9,30.22,West,278,13.3,13.3,71,0.00,,,0.00,VWS V14.01,2013-01-04 14:16:00,
2013-01-04 09:18:00,17.8,6.9,30.22,West,264,11.4,12.9,62,0.00,,,0.00,VWS V14.01,2013-01-04 14:18:00,
2013-01-04 09:23:00,17.6,9.4,30.22,WSW,252,11.2,11.2,70,0.00,,,0.00,VWS V14.01,2013-01-04 14:23:00,
2013-01-04 09:24:00,17.5,9.4,30.22,WSW,248,10.5,11.2,70,0.00,,,0.00,VWS V14.01,2013-01-04 14:24:00,
2013-01-04 09:25:00,17.6,9.5,30.28,WSW,243,12.4,12.4,70,0.00,,,0.00,VWS V14.01,2013-01-04 14:25:00,
2013-01-04 09:28:00,17.7,9.6,30.22,West,272,11.1,14.5,70,0.00,,,0.00,VWS V14.01,2013-01-04 14:28:00,
2013-01-04 09:29:00,17.6,9.6,30.21,WSW,256,11.7,11.7,70,0.00,,,0.00,VWS V14.01,2013-01-04 14:29:00,
2013-01-04 09:31:00,17.9,9.6,30.23,West,266,10.7,12.8,69,0.00,,,0.00,VWS V14.01,2013-01-04 14:31:00,
2013-01-04 09:34:00,18.0,9.2,30.22,West,259,13.8,15.5,68,0.00,,,0.00,VWS V14.01,2013-01-04 14:34:00,
2013-01-04 09:35:00,18.1,9.3,30.23,West,263,11.1,11.4,68,0.00,,,0.00,VWS V14.01,2013-01-04 14:35:00,
2013-01-04 09:36:00,18.2,9.2,30.23,West,260,12.6,13.5,67,0.00,,,0.00,VWS V14.01,2013-01-04 14:36:00,
2013-01-04 09:39:00,18.5,8.9,30.22,WSW,258,15.3,16.2,66,0.00,,,0.00,VWS V14.01,2013-01-04 14:39:00,
2013-01-04 09:40:00,18.5,8.8,30.22,West,263,18.1,18.1,65,0.00,,,0.00,VWS V14.01,2013-01-04 14:40:00,
2013-01-04 09:42:00,18.7,9.1,30.23,West,266,9.7,12.9,66,0.00,,,0.00,VWS V14.01,2013-01-04 14:42:00,
2013-01-04 09:44:00,18.6,8.7,30.23,West,281,15.7,15.7,65,0.00,,,0.00,VWS V14.01,2013-01-04 14:44:00,
2013-01-04 09:46:00,18.7,8.6,30.23,West,259,16.5,16.5,64,0.00,,,0.00,VWS V14.01,2013-01-04 14:46:00,
2013-01-04 09:48:00,18.6,8.5,30.24,West,274,17.0,20.6,64,0.00,,,0.00,VWS V14.01,2013-01-04 14:48:00,
2013-01-04 09:49:00,18.7,8.8,30.23,West,268,15.2,15.2,65,0.00,,,0.00,VWS V14.01,2013-01-04 14:49:00,
2013-01-04 09:51:00,18.7,8.5,30.22,West,278,16.2,16.2,64,0.00,,,0.00,VWS V14.01,2013-01-04 14:51:00,
2013-01-04 09:54:00,18.7,8.7,30.23,West,260,13.1,17.0,64,0.00,,,0.00,VWS V14.01,2013-01-04 14:54:00,
2013-01-04 09:56:00,18.8,8.4,30.23,WNW,284,16.4,16.4,63,0.00,,,0.00,VWS V14.01,2013-01-04 14:56:00,
2013-01-04 09:57:00,18.9,8.8,30.23,West,259,13.6,13.6,64,0.00,,,0.00,VWS V14.01,2013-01-04 14:57:00,
2013-01-04 09:59:00,18.8,8.2,30.24,WSW,253,18.1,18.1,63,0.00,,,0.00,VWS V14.01,2013-01-04 14:59:00,
2013-01-04 10:01:00,19.2,8.8,30.23,West,272,9.3,17.7,63,0.00,,,0.00,VWS V14.01,2013-01-04 15:01:00,
2013-01-04 10:03:00,19.0,8.4,30.23,West,267,10.7,14.6,63,0.00,,,0.00,VWS V14.01,2013-01-04 15:03:00,
2013-01-04 10:04:00,19.0,8.4,30.24,West,259,16.9,16.9,63,0.00,,,0.00,VWS V14.01,2013-01-04 15:04:00,
2013-01-04 10:06:00,19.1,8.4,30.22,West,263,14.3,14.3,63,0.00,,,0.00,VWS V14.01,2013-01-04 15:06:00,
2013-01-04 10:07:00,19.1,8.4,30.22,West,263,14.3,14.3,63,0.00,,,0.00,VWS V14.01,2013-01-04 15:07:00,
2013-01-04 10:08:00,19.0,8.3,30.23,West,266,15.3,15.3,62,0.00,,,0.00,VWS V14.01,2013-01-04 15:08:00,
2013-01-04 10:12:00,19.3,8.6,30.22,West,261,12.1,12.1,63,0.00,,,0.00,VWS V14.01,2013-01-04 15:12:00,
2013-01-04 10:13:00,19.1,8.4,30.22,West,268,16.4,19.6,62,0.00,,,0.00,VWS V14.01,2013-01-04 15:13:00,
2013-01-04 10:14:00,19.2,8.7,30.23,West,261,13.3,15.3,63,0.00,,,0.00,VWS V14.01,2013-01-04 15:14:00,
2013-01-04 10:18:00,19.0,8.1,30.22,West,279,18.9,18.9,62,0.00,,,0.00,VWS V14.01,2013-01-04 15:18:00,
2013-01-04 10:19:00,19.0,8.1,30.23,West,277,19.8,19.8,62,0.00,,,0.00,VWS V14.01,2013-01-04 15:19:00,
2013-01-04 10:20:00,19.1,8.3,30.23,West,266,17.0,20.6,62,0.00,,,0.00,VWS V14.01,2013-01-04 15:20:00,
2013-01-04 10:22:00,19.2,8.6,30.24,WNW,286,17.9,18.6,63,0.00,,,0.00,VWS V14.01,2013-01-04 15:22:00,
2013-01-04 10:23:00,19.4,8.7,30.23,West,263,15.8,17.9,62,0.00,,,0.00,VWS V14.01,2013-01-04 15:23:00,
2013-01-04 10:25:00,19.5,8.7,30.22,WSW,257,18.1,18.1,62,0.00,,,0.00,VWS V14.01,2013-01-04 15:25:00,
2013-01-04 10:26:00,19.3,8.2,30.22,WSW,255,20.0,20.0,61,0.00,,,0.00,VWS V14.01,2013-01-04 15:26:00,
2013-01-04 10:27:00,19.4,8.5,30.22,West,269,15.8,15.8,62,0.00,,,0.00,VWS V14.01,2013-01-04 15:27:00,
2013-01-04 10:28:00,19.5,8.9,30.22,WSW,248,14.8,15.8,63,0.00,,,0.00,VWS V14.01,2013-01-04 15:28:00,
2013-01-04 10:30:00,19.7,8.9,30.21,West,260,18.4,18.4,62,0.00,,,0.00,VWS V14.01,2013-01-04 15:30:00,
2013-01-04 10:33:00,19.7,8.7,30.23,West,261,16.2,16.5,62,0.00,,,0.00,VWS V14.01,2013-01-04 15:33:00,
2013-01-04 10:34:00,19.7,8.7,30.23,WSW,255,15.5,16.2,62,0.00,,,0.00,VWS V14.01,2013-01-04 15:34:00,
2013-01-04 10:36:00,19.9,9.0,30.22,West,260,14.5,14.5,62,0.00,,,0.00,VWS V14.01,2013-01-04 15:36:00,
2013-01-04 10:38:00,19.8,8.9,30.23,West,274,12.6,13.5,62,0.00,,,0.00,VWS V14.01,2013-01-04 15:38:00,
2013-01-04 10:39:00,19.7,8.7,30.23,West,269,14.6,14.6,62,0.00,,,0.00,VWS V14.01,2013-01-04 15:39:00,
2013-01-04 10:40:00,19.7,8.8,30.23,West,264,15.3,18.4,62,0.00,,,0.00,VWS V14.01,2013-01-04 15:40:00,
2013-01-04 10:42:00,19.9,8.8,30.23,West,273,18.4,18.9,61,0.00,,,0.00,VWS V14.01,2013-01-04 15:42:00,
2013-01-04 10:44:00,20.1,9.4,30.28,WSW,253,13.6,19.4,63,0.00,,,0.00,VWS V14.01,2013-01-04 15:44:00,
2013-01-04 10:45:00,20.1,9.5,30.24,West,260,12.8,16.9,63,0.00,,,0.00,VWS V14.01,2013-01-04 15:45:00,
2013-01-04 10:46:00,20.4,9.5,30.23,West,281,15.7,16.4,62,0.00,,,0.00,VWS V14.01,2013-01-04 15:46:00,
2013-01-04 10:49:00,20.5,9.3,30.23,West,269,13.6,13.6,61,0.00,,,0.00,VWS V14.01,2013-01-04 15:49:00,
2013-01-04 10:50:00,20.3,9.2,30.23,West,267,13.5,14.6,61,0.00,,,0.00,VWS V14.01,2013-01-04 15:50:00,
2013-01-04 10:52:00,20.7,9.5,30.23,West,268,13.1,17.0,61,0.00,,,0.00,VWS V14.01,2013-01-04 15:52:00,
2013-01-04 10:55:00,20.7,9.4,30.21,West,279,15.8,19.6,61,0.00,,,0.00,VWS V14.01,2013-01-04 15:55:00,
2013-01-04 10:57:00,20.6,9.1,30.23,West,262,17.2,17.2,60,0.00,,,0.00,VWS V14.01,2013-01-04 15:57:00,
2013-01-04 10:58:00,20.9,9.4,30.23,West,272,15.0,17.2,60,0.00,,,0.00,VWS V14.01,2013-01-04 15:58:00,
2013-01-04 11:00:00,21.1,9.9,30.22,West,262,14.3,18.4,61,0.00,,,0.00,VWS V14.01,2013-01-04 16:00:00,
2013-01-04 11:01:00,20.8,9.3,30.21,WSW,253,18.1,18.1,61,0.00,,,0.00,VWS V14.01,2013-01-04 16:01:00,
2013-01-04 11:03:00,20.5,8.8,30.23,West,275,21.2,21.2,60,0.00,,,0.00,VWS V14.01,2013-01-04 16:03:00,
2013-01-04 11:04:00,20.9,9.5,30.22,West,267,17.9,17.9,61,0.00,,,0.00,VWS V14.01,2013-01-04 16:04:00,
2013-01-04 11:05:00,20.9,9.6,30.22,West,271,14.5,20.0,61,0.00,,,0.00,VWS V14.01,2013-01-04 16:05:00,
2013-01-04 11:06:00,20.8,9.6,30.22,West,270,17.7,17.7,61,0.00,,,0.00,VWS V14.01,2013-01-04 16:06:00,
2013-01-04 11:08:00,20.9,9.5,30.22,West,276,21.5,21.5,61,0.00,,,0.00,VWS V14.01,2013-01-04 16:08:00,
2013-01-04 11:10:00,20.9,9.6,30.22,West,266,16.4,17.9,61,0.00,,,0.00,VWS V14.01,2013-01-04 16:10:00,
2013-01-04 11:11:00,20.9,9.8,30.21,West,275,13.5,13.5,62,0.00,,,0.00,VWS V14.01,2013-01-04 16:11:00,
2013-01-04 11:12:00,21.3,9.9,30.22,West,267,15.3,17.0,61,0.00,,,0.00,VWS V14.01,2013-01-04 16:12:00,
2013-01-04 11:13:00,21.1,10.0,30.21,WSW,257,14.8,15.2,61,0.00,,,0.00,VWS V14.01,2013-01-04 16:13:00,
2013-01-04 11:17:00,21.0,9.8,30.21,West,279,19.6,19.6,61,0.00,,,0.00,VWS V14.01,2013-01-04 16:17:00,
2013-01-04 11:18:00,20.9,9.4,30.21,West,275,19.1,19.6,61,0.00,,,0.00,VWS V14.01,2013-01-04 16:18:00,
2013-01-04 11:19:00,21.3,10.0,30.21,West,266,12.4,19.1,61,0.00,,,0.00,VWS V14.01,2013-01-04 16:19:00,
2013-01-04 11:22:00,21.0,9.6,30.21,West,262,14.1,14.1,61,0.00,,,0.00,VWS V14.01,2013-01-04 16:22:00,
2013-01-04 11:23:00,21.4,9.8,30.21,West,261,15.8,15.8,60,0.00,,,0.00,VWS V14.01,2013-01-04 16:23:00,
2013-01-04 11:24:00,21.1,9.9,30.21,West,278,13.8,15.8,61,0.00,,,0.00,VWS V14.01,2013-01-04 16:24:00,
2013-01-04 11:27:00,21.3,9.9,30.21,West,264,17.2,17.2,61,0.00,,,0.00,VWS V14.01,2013-01-04 16:27:00,
2013-01-04 11:28:00,21.1,9.8,30.21,West,265,15.5,17.2,61,0.00,,,0.00,VWS V14.01,2013-01-04 16:28:00,
2013-01-04 11:29:00,21.0,10.0,30.21,West,268,15.8,21.3,62,0.00,,,0.00,VWS V14.01,2013-01-04 16:29:00,
2013-01-04 11:30:00,20.9,10.0,30.21,WSW,256,20.0,21.3,62,0.00,,,0.00,VWS V14.01,2013-01-04 16:30:00,
2013-01-04 11:33:00,21.2,10.7,30.20,West,278,16.2,19.3,63,0.00,,,0.00,VWS V14.01,2013-01-04 16:33:00,
2013-01-04 11:34:00,21.0,10.5,30.21,West,269,17.2,17.2,63,0.00,,,0.00,VWS V14.01,2013-01-04 16:34:00,
2013-01-04 11:35:00,21.1,10.5,30.21,West,274,17.2,17.4,63,0.00,,,0.00,VWS V14.01,2013-01-04 16:35:00,
2013-01-04 11:37:00,21.3,10.9,30.21,West,259,16.7,16.7,64,0.00,,,0.00,VWS V14.01,2013-01-04 16:37:00,
2013-01-04 11:39:00,20.9,10.1,30.20,West,260,21.8,21.8,62,0.00,,,0.00,VWS V14.01,2013-01-04 16:39:00,
2013-01-04 11:40:00,21.3,10.4,30.20,West,265,19.4,19.4,62,0.00,,,0.00,VWS V14.01,2013-01-04 16:40:00,
2013-01-04 11:43:00,21.4,10.5,30.20,WSW,252,18.4,18.4,62,0.00,,,0.00,VWS V14.01,2013-01-04 16:43:00,
2013-01-04 11:45:00,21.0,10.2,30.20,West,270,19.1,19.1,62,0.00,,,0.00,VWS V14.01,2013-01-04 16:45:00,
2013-01-04 11:46:00,21.2,10.6,30.20,West,264,15.3,17.9,63,0.00,,,0.00,VWS V14.01,2013-01-04 16:46:00,
2013-01-04 11:48:00,21.5,10.5,30.19,West,259,18.6,18.6,62,0.00,,,0.00,VWS V14.01,2013-01-04 16:48:00,
2013-01-04 11:50:00,21.1,10.4,30.20,West,262,19.3,19.3,63,0.00,,,0.00,VWS V14.01,2013-01-04 16:50:00,
2013-01-04 11:51:00,21.6,10.9,30.25,WSW,254,18.1,19.3,63,0.00,,,0.00,VWS V14.01,2013-01-04 16:51:00,
2013-01-04 11:52:00,21.1,10.4,30.21,West,265,22.5,22.5,63,0.00,,,0.00,VWS V14.01,2013-01-04 16:52:00,
2013-01-04 11:54:00,21.3,10.4,30.18,West,280,18.9,19.3,62,0.00,,,0.00,VWS V14.01,2013-01-04 16:54:00,
2013-01-04 11:56:00,21.7,10.9,30.18,West,265,17.7,17.9,63,0.00,,,0.00,VWS V14.01,2013-01-04 16:56:00,
2013-01-04 11:57:00,21.6,10.9,30.19,WNW,284,17.7,21.8,63,0.00,,,0.00,VWS V14.01,2013-01-04 16:57:00,
2013-01-04 11:59:00,21.7,11.0,30.19,West,268,17.4,22.2,63,0.00,,,0.00,VWS V14.01,2013-01-04 16:59:00,
2013-01-04 12:01:00,21.5,11.0,30.19,WSW,256,16.0,16.0,63,0.00,,,0.00,VWS V14.01,2013-01-04 17:01:00,
2013-01-04 12:02:00,21.7,10.9,30.19,West,260,15.7,16.0,62,0.00,,,0.00,VWS V14.01,2013-01-04 17:02:00,
2013-01-04 12:03:00,21.6,10.7,30.19,West,266,18.6,19.6,62,0.00,,,0.00,VWS V14.01,2013-01-04 17:03:00,
2013-01-04 12:05:00,21.4,10.4,30.19,West,259,20.3,20.3,62,0.00,,,0.00,VWS V14.01,2013-01-04 17:05:00,
2013-01-04 12:09:00,21.4,10.9,30.18,West,271,17.4,17.4,63,0.00,,,0.00,VWS V14.01,2013-01-04 17:09:00,
2013-01-04 12:10:00,21.4,10.3,30.19,WSW,258,19.8,22.2,62,0.00,,,0.00,VWS V14.01,2013-01-04 17:10:00,
2013-01-04 12:11:00,21.5,10.3,30.19,WNW,284,20.0,21.0,62,0.00,,,0.00,VWS V14.01,2013-01-04 17:11:00,
2013-01-04 12:15:00,22.5,11.7,30.18,West,274,13.5,16.5,63,0.00,,,0.00,VWS V14.01,2013-01-04 17:15:00,
2013-01-04 12:16:00,21.6,10.7,30.18,West,263,18.1,18.1,62,0.00,,,0.00,VWS V14.01,2013-01-04 17:16:00,
2013-01-04 12:18:00,21.9,10.9,30.19,West,275,22.4,22.4,62,0.00,,,0.00,VWS V14.01,2013-01-04 17:18:00,
2013-01-04 12:21:00,22.3,11.6,30.17,West,265,15.2,18.8,63,0.00,,,0.00,VWS V14.01,2013-01-04 17:21:00,
2013-01-04 12:22:00,22.8,11.8,30.18,West,263,15.0,15.2,62,0.00,,,0.00,VWS V14.01,2013-01-04 17:22:00,
2013-01-04 12:23:00,22.7,11.4,30.18,WSW,252,14.5,15.0,61,0.00,,,0.00,VWS V14.01,2013-01-04 17:23:00,
2013-01-04 12:25:00,22.0,10.5,30.18,West,259,16.0,17.7,61,0.00,,,0.00,VWS V14.01,2013-01-04 17:25:00,
2013-01-04 12:28:00,22.5,11.0,30.18,West,271,15.0,15.0,61,0.00,,,0.00,VWS V14.01,2013-01-04 17:28:00,
2013-01-04 12:29:00,22.3,10.9,30.18,West,261,16.5,16.5,61,0.00,,,0.00,VWS V14.01,2013-01-04 17:29:00,
2013-01-04 12:30:00,22.7,10.9,30.17,WNW,287,16.7,16.7,60,0.00,,,0.00,VWS V14.01,2013-01-04 17:30:00,
2013-01-04 12:31:00,22.7,11.0,30.18,West,265,16.2,16.7,60,0.00,,,0.00,VWS V14.01,2013-01-04 17:31:00,
2013-01-04 12:33:00,22.6,11.0,30.17,West,267,17.4,17.4,61,0.00,,,0.00,VWS V14.01,2013-01-04 17:33:00,
2013-01-04 12:34:00,22.5,10.8,30.17,West,261,15.0,17.4,60,0.00,,,0.00,VWS V14.01,2013-01-04 17:34:00,
2013-01-04 12:36:00,22.5,11.0,30.17,WSW,258,14.6,14.6,61,0.00,,,0.00,VWS V14.01,2013-01-04 17:36:00,
2013-01-04 12:38:00,23.2,11.9,30.19,WSW,246,10.5,12.1,61,0.00,,,0.00,VWS V14.01,2013-01-04 17:38:00,
2013-01-04 12:41:00,22.1,10.1,30.17,WSW,250,21.0,21.0,59,0.00,,,0.00,VWS V14.01,2013-01-04 17:41:00,
2013-01-04 12:43:00,21.8,9.8,30.16,West,259,17.7,18.6,59,0.00,,,0.00,VWS V14.01,2013-01-04 17:43:00,
2013-01-04 12:44:00,22.4,10.7,30.17,WSW,244,14.8,21.8,60,0.00,,,0.00,VWS V14.01,2013-01-04 17:44:00,
2013-01-04 12:46:00,21.8,10.2,30.17,WSW,258,18.9,18.9,60,0.00,,,0.00,VWS V14.01,2013-01-04 17:46:00,
2013-01-04 12:47:00,23.0,11.8,30.17,WSW,247,12.6,12.6,62,0.00,,,0.00,VWS V14.01,2013-01-04 17:47:00,
2013-01-04 12:48:00,22.2,10.7,30.17,WSW,252,18.6,18.6,61,0.00,,,0.00,VWS V14.01,2013-01-04 17:48:00,
2013-01-04 12:50:00,22.3,10.6,30.18,WSW,245,16.9,16.9,60,0.00,,,0.00,VWS V14.01,2013-01-04 17:50:00,
2013-01-04 12:52:00,22.5,11.2,30.17,WSW,252,15.5,17.7,61,0.00,,,0.00,VWS V14.01,2013-01-04 17:52:00,
2013-01-04 12:54:00,22.4,10.9,30.17,WSW,256,17.6,17.6,61,0.00,,,0.00,VWS V14.01,2013-01-04 17:54:00,
2013-01-04 12:56:00,22.8,11.6,30.16,West,263,14.6,14.6,62,0.00,,,0.00,VWS V14.01,2013-01-04 17:56:00,
2013-01-04 12:58:00,22.8,11.7,30.16,West,268,13.5,13.6,62,0.00,,,0.00,VWS V14.01,2013-01-04 17:58:00,
2013-01-04 12:59:00,22.6,11.0,30.16,WSW,256,21.0,21.0,60,0.00,,,0.00,VWS V14.01,2013-01-04 17:59:00,
2013-01-04 13:02:00,23.4,12.3,30.17,West,268,13.5,16.0,62,0.00,,,0.00,VWS V14.01,2013-01-04 18:02:00,
2013-01-04 13:03:00,22.9,11.6,30.17,West,269,19.3,19.3,61,0.00,,,0.00,VWS V14.01,2013-01-04 18:03:00,
2013-01-04 13:04:00,22.8,11.6,30.17,West,265,20.1,20.1,62,0.00,,,0.00,VWS V14.01,2013-01-04 18:04:00,
2013-01-04 13:05:00,23.1,12.0,30.17,West,266,14.3,20.1,62,0.00,,,0.00,VWS V14.01,2013-01-04 18:05:00,
2013-01-04 13:07:00,23.1,12.0,30.16,West,269,15.7,21.7,62,0.00,,,0.00,VWS V14.01,2013-01-04 18:07:00,
2013-01-04 13:09:00,23.3,12.4,30.15,West,278,14.5,21.7,62,0.00,,,0.00,VWS V14.01,2013-01-04 18:09:00,
2013-01-04 13:11:00,23.4,12.2,30.17,WSW,254,16.0,21.7,62,0.00,,,0.00,VWS V14.01,2013-01-04 18:11:00,
2013-01-04 13:13:00,23.4,11.7,30.16,West,263,21.2,21.7,60,0.00,,,0.00,VWS V14.01,2013-01-04 18:13:00,
2013-01-04 13:15:00,23.8,12.4,30.16,West,268,15.2,21.7,61,0.00,,,0.00,VWS V14.01,2013-01-04 18:15:00,
2013-01-04 13:16:00,23.8,12.1,30.16,West,273,18.6,21.7,60,0.00,,,0.00,VWS V14.01,2013-01-04 18:16:00,
2013-01-04 13:17:00,23.8,12.4,30.18,WSW,248,17.9,21.7,61,0.00,,,0.00,VWS V14.01,2013-01-04 18:17:00,
2013-01-04 13:19:00,23.8,12.1,30.16,West,270,17.2,21.7,61,0.00,,,0.00,VWS V14.01,2013-01-04 18:19:00,
2013-01-04 13:21:00,24.3,12.6,30.16,WNW,282,14.3,21.7,60,0.00,,,0.00,VWS V14.01,2013-01-04 18:21:00,
2013-01-04 13:23:00,23.7,11.7,30.15,WSW,258,20.1,21.7,60,0.00,,,0.00,VWS V14.01,2013-01-04 18:23:00,
2013-01-04 13:25:00,23.8,12.1,30.16,WSW,250,19.3,21.7,61,0.00,,,0.00,VWS V14.01,2013-01-04 18:25:00,
2013-01-04 13:26:00,23.5,12.2,30.15,West,270,21.3,21.8,61,0.00,,,0.00,VWS V14.01,2013-01-04 18:26:00,
2013-01-04 13:30:00,24.2,13.1,30.15,West,265,17.2,21.8,62,0.00,,,0.00,VWS V14.01,2013-01-04 18:30:00,
2013-01-04 13:31:00,24.3,12.9,30.16,WSW,254,15.8,21.8,61,0.00,,,0.00,VWS V14.01,2013-01-04 18:31:00,
2013-01-04 13:32:00,24.4,12.8,30.15,West,261,17.0,21.8,61,0.00,,,0.00,VWS V14.01,2013-01-04 18:32:00,
2013-01-04 13:33:00,24.5,13.1,30.14,West,267,14.3,21.8,61,0.00,,,0.00,VWS V14.01,2013-01-04 18:33:00,
2013-01-04 13:37:00,24.6,12.4,30.15,West,262,24.2,24.2,59,0.00,,,0.00,VWS V14.01,2013-01-04 18:37:00,
2013-01-04 13:38:00,24.9,12.8,30.15,WSW,250,17.6,24.2,59,0.00,,,0.00,VWS V14.01,2013-01-04 18:38:00,
2013-01-04 13:39:00,24.7,12.7,30.15,West,280,18.6,24.2,60,0.00,,,0.00,VWS V14.01,2013-01-04 18:39:00,
2013-01-04 13:40:00,24.6,12.8,30.15,West,261,18.8,24.2,60,0.00,,,0.00,VWS V14.01,2013-01-04 18:40:00,
2013-01-04 13:42:00,25.1,12.9,30.14,West,264,19.6,24.2,59,0.00,,,0.00,VWS V14.01,2013-01-04 18:42:00,
2013-01-04 13:44:00,25.3,13.4,30.13,West,259,13.3,24.2,60,0.00,,,0.00,VWS V14.01,2013-01-04 18:44:00,
2013-01-04 13:47:00,25.1,13.1,30.20,West,281,16.9,24.2,60,0.00,,,0.00,VWS V14.01,2013-01-04 18:47:00,
2013-01-04 13:49:00,25.3,13.8,30.14,WSW,247,12.1,24.2,61,0.00,,,0.00,VWS V14.01,2013-01-04 18:49:00,
2013-01-04 13:50:00,25.4,13.7,30.14,West,263,11.9,24.2,61,0.00,,,0.00,VWS V14.01,2013-01-04 18:50:00,
2013-01-04 13:52:00,25.4,13.9,30.14,West,269,13.5,24.2,61,0.00,,,0.00,VWS V14.01,2013-01-04 18:52:00,
2013-01-04 13:54:00,25.9,13.3,30.14,West,264,13.6,24.2,58,0.00,,,0.00,VWS V14.01,2013-01-04 18:54:00,
2013-01-04 13:56:00,25.4,12.8,30.14,West,263,18.6,24.2,58,0.00,,,0.00,VWS V14.01,2013-01-04 18:56:00,
2013-01-04 13:58:00,25.3,12.5,30.13,WSW,254,20.8,24.2,58,0.00,,,0.00,VWS V14.01,2013-01-04 18:58:00,
2013-01-04 13:59:00,25.5,12.8,30.14,West,271,19.1,24.2,58,0.00,,,0.00,VWS V14.01,2013-01-04 18:59:00,
2013-01-04 14:00:00,25.7,13.4,30.14,West,266,14.8,24.2,59,0.00,,,0.00,VWS V14.01,2013-01-04 19:00:00,
2013-01-04 14:01:00,25.8,13.1,30.14,WSW,255,15.5,24.2,58,0.00,,,0.00,VWS V14.01,2013-01-04 19:01:00,
2013-01-04 14:04:00,25.7,12.9,30.14,West,267,18.9,18.9,58,0.00,,,0.00,VWS V14.01,2013-01-04 19:04:00,
2013-01-04 14:05:00,25.8,13.6,30.14,West,265,12.3,15.7,59,0.00,,,0.00,VWS V14.01,2013-01-04 19:05:00,
2013-01-04 14:08:00,26.1,13.6,30.14,WSW,248,13.3,15.7,59,0.00,,,0.00,VWS V14.01,2013-01-04 19:08:00,
2013-01-04 14:09:00,26.1,13.2,30.14,West,260,15.3,20.3,57,0.00,,,0.00,VWS V14.01,2013-01-04 19:09:00,
2013-01-04 14:10:00,26.0,13.1,30.15,West,262,14.1,16.0,58,0.00,,,0.00,VWS V14.01,2013-01-04 19:10:00,
2013-01-04 14:11:00,26.0,13.0,30.14,WSW,256,14.8,14.8,57,0.00,,,0.00,VWS V14.01,2013-01-04 19:11:00,
2013-01-04 14:13:00,26.3,13.3,30.13,West,261,14.6,14.6,57,0.00,,,0.00,VWS V14.01,2013-01-04 19:13:00,
2013-01-04 14:15:00,26.7,13.9,30.13,West,264,14.0,14.6,58,0.00,,,0.00,VWS V14.01,2013-01-04 19:15:00,
2013-01-04 14:16:00,26.4,13.1,30.13,West,264,19.8,19.8,57,0.00,,,0.00,VWS V14.01,2013-01-04 19:16:00,
2013-01-04 14:17:00,26.6,13.3,30.13,West,260,18.2,19.8,57,0.00,,,0.00,VWS V14.01,2013-01-04 19:17:00,
2013-01-04 14:19:00,26.6,13.0,30.13,SW,235,17.9,19.8,56,0.00,,,0.00,VWS V14.01,2013-01-04 19:19:00,
2013-01-04 14:20:00,26.5,13.1,30.12,WSW,250,13.8,18.1,56,0.00,,,0.00,VWS V14.01,2013-01-04 19:20:00,
2013-01-04 14:21:00,27.0,13.4,30.14,SW,235,15.8,15.8,56,0.00,,,0.00,VWS V14.01,2013-01-04 19:21:00,
2013-01-04 14:22:00,26.8,13.6,30.14,West,259,14.0,15.8,57,0.00,,,0.00,VWS V14.01,2013-01-04 19:22:00,
2013-01-04 14:25:00,26.7,9.8,30.13,WSW,258,17.2,19.8,48,0.00,,,0.00,VWS V14.01,2013-01-04 19:25:00,
2013-01-04 14:27:00,26.9,13.1,30.14,WSW,252,17.6,17.6,56,0.00,,,0.00,VWS V14.01,2013-01-04 19:27:00,
2013-01-04 14:30:00,27.4,13.6,30.14,WSW,250,14.1,15.0,55,0.00,,,0.00,VWS V14.01,2013-01-04 19:30:00,
2013-01-04 14:31:00,27.1,13.7,30.14,WSW,255,13.5,17.2,57,0.00,,,0.00,VWS V14.01,2013-01-04 19:31:00,
2013-01-04 14:32:00,27.2,14.0,30.14,West,264,11.4,17.2,57,0.00,,,0.00,VWS V14.01,2013-01-04 19:32:00,
2013-01-04 14:33:00,27.1,13.5,30.14,WSW,249,13.3,14.5,56,0.00,,,0.00,VWS V14.01,2013-01-04 19:33:00,
2013-01-04 14:35:00,26.9,13.4,30.14,WSW,247,15.5,16.0,56,0.00,,,0.00,VWS V14.01,2013-01-04 19:35:00,
2013-01-04 14:38:00,27.2,13.5,30.13,WSW,241,15.7,15.7,56,0.00,,,0.00,VWS V14.01,2013-01-04 19:38:00,
2013-01-04 14:39:00,27.2,13.1,30.14,SW,236,18.8,18.8,55,0.00,,,0.00,VWS V14.01,2013-01-04 19:39:00,
2013-01-04 14:41:00,27.3,13.5,30.12,SW,230,15.8,17.9,55,0.00,,,0.00,VWS V14.01,2013-01-04 19:41:00,
2013-01-04 14:44:00,26.6,13.0,30.14,WSW,241,15.3,19.8,56,0.00,,,0.00,VWS V14.01,2013-01-04 19:44:00,
2013-01-04 14:46:00,27.0,13.3,30.13,WSW,247,16.0,16.0,56,0.00,,,0.00,VWS V14.01,2013-01-04 19:46:00,
2013-01-04 14:47:00,26.8,12.8,30.14,WSW,248,17.7,17.7,55,0.00,,,0.00,VWS V14.01,2013-01-04 19:47:00,
2013-01-04 14:50:00,27.0,13.4,30.14,WSW,244,13.8,14.8,56,0.00,,,0.00,VWS V14.01,2013-01-04 19:50:00,
2013-01-04 14:51:00,27.0,12.4,30.13,WSW,245,15.7,15.7,54,0.00,,,0.00,VWS V14.01,2013-01-04 19:51:00,
2013-01-04 14:52:00,26.9,12.9,30.14,WSW,248,19.1,19.1,55,0.00,,,0.00,VWS V14.01,2013-01-04 19:52:00,
2013-01-04 14:53:00,26.9,12.9,30.14,WSW,248,19.1,19.1,55,0.00,,,0.00,VWS V14.01,2013-01-04 19:53:00,
2013-01-04 14:55:00,26.6,13.3,30.14,WSW,249,13.3,14.6,57,0.00,,,0.00,VWS V14.01,2013-01-04 19:55:00,
2013-01-04 14:57:00,26.6,13.4,30.14,WSW,252,15.0,16.5,57,0.00,,,0.00,VWS V14.01,2013-01-04 19:57:00,
2013-01-04 14:58:00,26.4,12.9,30.13,WSW,240,16.5,16.5,56,0.00,,,0.00,VWS V14.01,2013-01-04 19:58:00,
2013-01-04 15:00:00,26.5,12.8,30.13,West,262,18.2,18.2,56,0.00,,,0.00,VWS V14.01,2013-01-04 20:00:00,
2013-01-04 15:02:00,27.0,13.6,30.13,WSW,238,13.5,17.9,57,0.00,,,0.00,VWS V14.01,2013-01-04 20:02:00,
2013-01-04 15:05:00,26.5,12.8,30.13,WSW,243,15.5,17.9,55,0.00,,,0.00,VWS V14.01,2013-01-04 20:05:00,
2013-01-04 15:07:00,27.0,13.3,30.14,WSW,244,19.3,19.3,56,0.00,,,0.00,VWS V14.01,2013-01-04 20:07:00,
2013-01-04 15:09:00,26.6,12.9,30.14,WSW,244,15.5,19.3,56,0.00,,,0.00,VWS V14.01,2013-01-04 20:09:00,
2013-01-04 15:10:00,26.5,13.1,30.14,WSW,257,16.0,19.3,57,0.00,,,0.00,VWS V14.01,2013-01-04 20:10:00,
2013-01-04 15:11:00,26.5,13.3,30.14,West,265,16.0,19.3,57,0.00,,,0.00,VWS V14.01,2013-01-04 20:11:00,
2013-01-04 15:13:00,26.5,13.3,30.14,West,269,17.2,19.4,57,0.00,,,0.00,VWS V14.01,2013-01-04 20:13:00,
2013-01-04 15:15:00,26.4,13.1,30.14,West,270,16.7,19.4,56,0.00,,,0.00,VWS V14.01,2013-01-04 20:15:00,
2013-01-04 15:16:00,26.5,12.8,30.13,West,259,22.4,22.4,56,0.00,,,0.00,VWS V14.01,2013-01-04 20:16:00,
2013-01-04 15:18:00,26.4,13.0,30.13,West,259,17.6,22.5,56,0.00,,,0.00,VWS V14.01,2013-01-04 20:18:00,
2013-01-04 15:19:00,26.4,13.0,30.13,West,259,17.6,22.5,56,0.00,,,0.00,VWS V14.01,2013-01-04 20:19:00,
2013-01-04 15:21:00,26.8,13.8,30.14,WSW,246,16.2,22.5,57,0.00,,,0.00,VWS V14.01,2013-01-04 20:21:00,
2013-01-04 15:23:00,26.7,13.3,30.14,West,260,17.4,22.5,57,0.00,,,0.00,VWS V14.01,2013-01-04 20:23:00,
2013-01-04 15:24:00,26.7,13.2,30.14,WSW,239,20.0,22.5,56,0.00,,,0.00,VWS V14.01,2013-01-04 20:24:00,
2013-01-04 15:26:00,26.5,13.2,30.14,WSW,256,16.9,22.5,57,0.00,,,0.00,VWS V14.01,2013-01-04 20:26:00,
2013-01-04 15:29:00,26.6,13.3,30.13,West,264,16.9,22.5,57,0.00,,,0.00,VWS V14.01,2013-01-04 20:29:00,
2013-01-04 15:30:00,26.6,13.3,30.13,West,264,16.9,22.5,57,0.00,,,0.00,VWS V14.01,2013-01-04 20:30:00,
2013-01-04 15:32:00,26.8,13.6,30.15,West,262,12.3,22.5,57,0.00,,,0.00,VWS V14.01,2013-01-04 20:32:00,
2013-01-04 15:35:00,26.2,12.9,30.14,WSW,249,15.5,22.5,57,0.00,,,0.00,VWS V14.01,2013-01-04 20:35:00,
2013-01-04 15:36:00,26.9,14.4,30.14,SW,234,9.0,22.5,59,0.00,,,0.00,VWS V14.01,2013-01-04 20:36:00,
2013-01-04 15:38:00,26.1,13.2,30.15,WSW,246,15.2,22.5,58,0.00,,,0.00,VWS V14.01,2013-01-04 20:38:00,
2013-01-04 15:40:00,26.6,13.8,30.15,SW,229,16.4,22.5,58,0.00,,,0.00,VWS V14.01,2013-01-04 20:40:00,
2013-01-04 15:41:00,26.5,13.8,30.15,WSW,251,13.6,22.5,58,0.00,,,0.00,VWS V14.01,2013-01-04 20:41:00,
2013-01-04 15:43:00,26.4,13.7,30.14,WSW,241,15.7,22.5,58,0.00,,,0.00,VWS V14.01,2013-01-04 20:43:00,
2013-01-04 15:45:00,26.1,13.6,30.14,WSW,243,13.1,22.5,59,0.00,,,0.00,VWS V14.01,2013-01-04 20:45:00,
2013-01-04 15:47:00,26.2,13.7,30.14,West,274,12.9,22.5,58,0.00,,,0.00,VWS V14.01,2013-01-04 20:47:00,
2013-01-04 15:49:00,26.4,13.9,30.15,WSW,248,15.8,22.5,59,0.00,,,0.00,VWS V14.01,2013-01-04 20:49:00,
2013-01-04 15:50:00,26.3,13.5,30.15,WSW,251,18.2,22.5,58,0.00,,,0.00,VWS V14.01,2013-01-04 20:50:00,
2013-01-04 15:51:00,26.2,12.5,30.15,West,262,18.4,22.5,56,0.00,,,0.00,VWS V14.01,2013-01-04 20:51:00,
2013-01-04 15:52:00,26.2,13.8,30.15,West,277,14.1,22.5,59,0.00,,,0.00,VWS V14.01,2013-01-04 20:52:00,
2013-01-04 15:56:00,26.4,13.6,30.15,WSW,241,16.2,22.5,58,0.00,,,0.00,VWS V14.01,2013-01-04 20:56:00,
2013-01-04 15:57:00,26.2,13.5,30.15,WSW,249,17.4,22.5,58,0.00,,,0.00,VWS V14.01,2013-01-04 20:57:00,
2013-01-04 15:59:00,26.1,13.7,30.14,WSW,252,16.2,22.5,59,0.00,,,0.00,VWS V14.01,2013-01-04 20:59:00,
2013-01-04 16:02:00,26.0,13.7,30.14,WSW,252,16.5,22.5,59,0.00,,,0.00,VWS V14.01,2013-01-04 21:02:00,
2013-01-04 16:04:00,26.2,14.0,30.15,WSW,244,14.0,16.2,59,0.00,,,0.00,VWS V14.01,2013-01-04 21:04:00,
2013-01-04 16:05:00,26.1,13.9,30.15,WSW,250,16.2,16.9,59,0.00,,,0.00,VWS V14.01,2013-01-04 21:05:00,
2013-01-04 16:09:00,25.9,13.9,30.15,WSW,257,14.1,14.1,60,0.00,,,0.00,VWS V14.01,2013-01-04 21:09:00,
2013-01-04 16:10:00,25.8,13.7,30.15,West,259,17.7,17.7,60,0.00,,,0.00,VWS V14.01,2013-01-04 21:10:00,
2013-01-04 16:11:00,26.1,13.9,30.15,West,259,15.7,17.7,59,0.00,,,0.00,VWS V14.01,2013-01-04 21:11:00,
2013-01-04 16:15:00,25.8,14.2,30.15,WSW,252,12.1,12.1,61,0.00,,,0.00,VWS V14.01,2013-01-04 21:15:00,
2013-01-04 16:16:00,25.9,14.2,30.15,WSW,248,16.9,16.9,61,0.00,,,0.00,VWS V14.01,2013-01-04 21:16:00,
2013-01-04 16:18:00,25.7,13.8,30.15,West,264,14.6,17.7,60,0.00,,,0.00,VWS V14.01,2013-01-04 21:18:00,
2013-01-04 16:20:00,25.9,14.0,30.16,WSW,250,15.5,15.5,60,0.00,,,0.00,VWS V14.01,2013-01-04 21:20:00,
2013-01-04 16:21:00,25.7,14.0,30.15,WSW,252,14.5,14.5,61,0.00,,,0.00,VWS V14.01,2013-01-04 21:21:00,
2013-01-04 16:22:00,25.6,13.8,30.15,WSW,258,14.3,14.5,60,0.00,,,0.00,VWS V14.01,2013-01-04 21:22:00,
2013-01-04 16:23:00,25.7,13.8,30.16,West,273,21.0,23.2,60,0.00,,,0.00,VWS V14.01,2013-01-04 21:23:00,
2013-01-04 16:26:00,26.0,14.4,30.15,WSW,246,14.3,14.3,61,0.00,,,0.00,VWS V14.01,2013-01-04 21:26:00,
2013-01-04 16:27:00,25.8,14.3,30.16,WSW,256,12.9,14.3,61,0.00,,,0.00,VWS V14.01,2013-01-04 21:27:00,
2013-01-04 16:30:00,25.9,14.5,30.16,WSW,243,13.5,13.5,61,0.00,,,0.00,VWS V14.01,2013-01-04 21:30:00,
2013-01-04 16:32:00,25.7,14.2,30.16,West,263,10.4,12.1,61,0.00,,,0.00,VWS V14.01,2013-01-04 21:32:00,
2013-01-04 16:35:00,25.6,14.3,30.15,WSW,252,9.9,12.8,62,0.00,,,0.00,VWS V14.01,2013-01-04 21:35:00,
2013-01-04 16:37:00,25.4,14.5,30.16,WSW,247,9.7,10.5,63,0.00,,,0.00,VWS V14.01,2013-01-04 21:37:00,
2013-01-04 16:40:00,26.0,14.6,30.16,WSW,243,17.0,17.0,61,0.00,,,0.00,VWS V14.01,2013-01-04 21:40:00,
2013-01-04 16:41:00,25.4,14.1,30.16,West,259,12.3,17.0,62,0.00,,,0.00,VWS V14.01,2013-01-04 21:41:00,
2013-01-04 16:42:00,25.6,14.4,30.16,WSW,254,15.2,15.2,62,0.00,,,0.00,VWS V14.01,2013-01-04 21:42:00,
2013-01-04 16:43:00,25.9,14.5,30.16,WSW,251,18.2,18.2,62,0.00,,,0.00,VWS V14.01,2013-01-04 21:43:00,
2013-01-04 16:46:00,25.5,14.4,30.16,West,260,14.3,14.3,62,0.00,,,0.00,VWS V14.01,2013-01-04 21:46:00,
2013-01-04 16:47:00,25.8,14.8,30.16,WSW,258,15.2,15.2,63,0.00,,,0.00,VWS V14.01,2013-01-04 21:47:00,
2013-01-04 16:48:00,25.6,14.6,30.16,WSW,257,12.6,14.8,62,0.00,,,0.00,VWS V14.01,2013-01-04 21:48:00,